Regional Weather Roundup
Issued by NWS

Home | Current Version | Previous Version | Text Only | Print | Product List | Glossary Off
Versions: 1 2 3 4 5 6 7 8 9 10 11 12 13 14 15 16 17 18 19 20 21 22 23 24 25 26 27 28

000
ASUS43 KDMX 200707
RWRIA

WEATHER ROUNDUP FOR IOWA
NATIONAL WEATHER SERVICE DES MOINES IA
200 AM CDT SUN APR 20 2014

NOTE: "FAIR" INDICATES FEW OR NO CLOUDS BELOW 12,000 FEET WITH NO
SIGNIFICANT WEATHER AND/OR OBSTRUCTIONS TO VISIBILITY.

* - THESE STATIONS ARE NOT NWS STATIONS...THUS NOT UNDER NWS
QUALITY CONTROL.  THEY ALSO DO NOT REPORT WEATHER SUCH
AS PRECIPITATION OR FOG.

IAZ001>003-012>014-020>022-031>034-043>046-200800-
   NORTHWEST IOWA

CITY           SKY/WX    TMP DP  RH WIND       PRES   REMARKS
CARROLL *      CLOUDY    64  45  48 S14G21    30.02S
CHEROKEE *     CLOUDY    57  45  62 CALM      29.99F
DENISON *      CLOUDY    66  45  45 S15G22    29.99F
LE MARS *      CLEAR     55  50  82 NE9       29.98F
ORANGE CITY *  PTCLDY    57  43  58 E9        29.99F
SHELDON *      MOCLDY    54  41  62 E8        29.99F
SIOUX CITY     PTCLDY    56  45  66 CALM      29.98S
SPENCER        CLOUDY    56  45  66 NE9       30.01F
STORM LAKE *   MOCLDY    63  45  51 S10       30.01F
$$

IAZ055>058-069>071-079>083-090>094-200800-
   SOUTHWEST IOWA

CITY           SKY/WX    TMP DP  RH WIND       PRES   REMARKS
ATLANTIC *     MOCLDY    63  45  51 S10       30.03R
AUDUBON *      PTCLDY    66  39  37 S10G20    30.04S
CLARINDA *     CLEAR     63  45  51 S7        30.06S
COUNCIL BLFS * CLEAR     66  46  48 S16       29.99F
CRESTON *      CLOUDY    61  46  59 S10       30.07S
HARLAN  *      CLOUDY    64  45  48 S14       30.05S
LAMONI         MOCLDY    59  43  55 S6        30.08S
RED OAK *      CLOUDY    64  45  48 S13       30.03S
SHENANDOAH *   CLEAR     63  45  51 SE10      30.04S
$$

IAZ047>049-059>061-072>074-084-200800-
   CENTRAL IOWA

CITY           SKY/WX    TMP DP  RH WIND       PRES   REMARKS
AMES           CLOUDY    61  45  55 S8        30.05F
ANKENY *       CLOUDY    59  46  63 S8        30.06S
CHARITON *     CLOUDY    57  45  62 SE8       30.09S
DES MOINES     CLOUDY    62  44  51 S8        30.06F
GRINNELL*      MOCLDY    61  41  48 S16       30.09F
KNOXVILLE *    PTCLDY    59  41  51 S8        30.08S
MARSHALLTOWN   CLOUDY    62  43  49 S14       30.07S
NEWTON *       CLOUDY    57  43  58 S9        30.09S
PELLA *        MOCLDY    59  43  55 S9        30.09F
PERRY *        CLOUDY    64  43  45 S12       30.04S
$$

IAZ004>006-015-016-023>025-035-036-200800-
   NORTH CENTRAL IOWA

CITY           SKY/WX    TMP DP  RH WIND       PRES   REMARKS
ALGONA *       CLOUDY    63  46  55 S9        30.02R
CLARION *      CLOUDY    63  45  51 S14       30.02F
ESTHERVILLE    CLOUDY    54  47  77 N5        30.02R
FORT DODGE *   CLOUDY    64  45  48 S14       30.03S
MASON CITY     CLOUDY    60  47  61 S10       30.04S
FOREST CITY *  CLOUDY    61  45  55 S9        30.02S
IOWA FALLS *   CLOUDY    63  45  51 S12       30.06S
$$

IAZ007>011-017>019-026>030-037>042-050>054-066-200800-
   NORTHEAST IOWA

CITY           SKY/WX    TMP DP  RH WIND       PRES   REMARKS
CEDAR RAPIDS   PTCLDY    56  39  53 S10       30.11S
CHARLES CITY * CLOUDY    61  45  55 S14       30.06S
CLINTON *      PTCLDY    50  36  57 SE9       30.19S
DECORAH *      CLOUDY    63  41  45 S13G18    30.06F
DUBUQUE        CLOUDY    55  38  52 S12       30.14S
MONTICELLO *   CLOUDY    59  41  51 S12       30.12F
OELWEIN *      CLOUDY   N/A N/A N/A S14       30.10S
WATERLOO       CLOUDY    62  42  47 S15       30.06F
$$

IAZ064-065-067-068-078-200800-
   EAST CENTRAL IOWA

CITY           SKY/WX    TMP DP  RH WIND       PRES   REMARKS
DAVENPORT      PTCLDY    54  38  54 SE10      30.16F
IOWA CITY      PTCLDY    52  39  61 SE3       30.14S
MT. PLEASANT * PTCLDY    59  39  47 SE10      30.14S
MUSCATINE *    CLEAR     54  41  62 S5        30.15S
QUAD CITIES    CLEAR     55  38  52 S9        30.15F
$$

IAZ062-063-075>077-085>089-095>099-200800-
   SOUTHEAST IOWA

CITY           SKY/WX    TMP DP  RH WIND       PRES   REMARKS
BURLINGTON     PTCLDY    59  41  51 S9        30.15S
FAIRFIELD *    PTCLDY    57  39  51 S12       30.13S
FORT MADISON * CLEAR     57  43  58 S10       30.16S
KEOKUK *       CLEAR     61  43  51 S7        30.14S
OSKALOOSA *      N/A     55  41  58 S10       30.11S
CENTERVILLE *  CLEAR     55  41  58 SE10      30.11F
OTTUMWA        CLEAR     58  39  49 S13       30.11S
WASHINGTON *   CLEAR     57  41  54 S9        30.13S
$$

ABBREVIATIONS USED IN REMARKS
   TC - TEMPERATURES IN CELSIUS
  WCI - WIND CHILL INDEX
   HX - HEAT INDEX
  VSB - VISIBILITY
$$




USA.gov is the U.S. government's official web portal to all federal, state and local government web resources and services.